Weather Roundup
Issued by NWS

Home | Current Version | Previous Version | Text Only | Print | Product List | Glossary On
Versions: 1 2 3 4 5 6 7 8 9 10 11 12 13 14 15 16 17 18 19 20 21 22 23 24 25 26 27 28 29 30 31 32 33 34 35 36 37 38 39 40 41 42 43 44 45 46 47 48 49 50
000
NZUS93 KARX 070559
HRRWXR

CURRENT HOURLY OBSERVATIONS ACROSS
MUCH OF THE UPPER MISSISSIPPI VALLEY
NATIONAL WEATHER SERVICE LA CROSSE WI
100 AM CDT TUE JUL 07 2015


...SOUTHEAST MINNESOTA...


CITY           SKY/WX    TMP DP  RH WIND       PRES   REMARKS
ROCHESTER      MOCLDY    58  51  78 N13       30.02R
ROCHESTER/MAYO MOCLDY    59  51  75 NW9G17    30.02S
WINONA         CLOUDY    61  55  82 N10G16    29.98S HAZE
AUSTIN         MOCLDY    61  52  72 N9G18     30.02S
ALBERT LEA     CLEAR     57  52  82 N7        30.04S
DODGE CENTER   PTCLDY    57  52  82 N9        30.03S
PRESTON        CLOUDY    59  54  83 N10G20    30.01R
OWATONNA       CLEAR     55  50  82 N6        30.05S
FARIBAULT      CLEAR     55  52  88 NW6       30.05S
$$

...ELSEWHERE IN MINNESOTA...


CITY           SKY/WX    TMP DP  RH WIND       PRES   REMARKS
MINNEAPOLIS    PTCLDY    59  48  67 N12       30.05S
INTNL FALLS    CLOUDY    46  44  93 CALM      30.10R
DULUTH         CLOUDY    55  44  66 N8        30.05R
RED WING       CLEAR     59  48  67 N7        30.01S
REDWOOD FALLS  CLEAR     55  48  77 N8        30.11R
MANKATO        CLEAR     55  46  71 NW8       30.07S
WORTHINGTON    CLEAR     52  46  82 N7        30.12S
FAIRMONT       CLEAR     55  46  71 N7        30.08R
$$

...SOUTHWEST WISCONSIN...


CITY           SKY/WX    TMP DP  RH WIND       PRES   REMARKS
LA CROSSE      CLOUDY    59  56  89 NW6       29.96S FOG
PRAIRIE DU CHI CLOUDY    63  54  70 NW7       29.95R HAZE
BOSCOBEL       CLOUDY    63  56  78 N6        29.95R HAZE
LONE ROCK      NOT AVBL
PLATTEVILLE    MOCLDY    62  58  87 N10       29.92R
FORT MC COY      N/A     56  54  93 CALM      29.96S FOG
VIROQUA        FAIR      58  58 100 N9        29.96S
WIS DELLS      CLOUDY    62  56  81 N7        29.92R HAZE
$$

...ELSEWHERE IN WISCONSIN...


CITY           SKY/WX    TMP DP  RH WIND       PRES   REMARKS
MILWAUKEE      CLOUDY    72  69  90 SW8       29.81F
MADISON        CLOUDY    62  58  86 N13       29.89R FOG
GREEN BAY      CLOUDY    61  57  87 N10       29.89S FOG
EAU CLAIRE     NOT AVBL
BLACK RVR FLS    N/A     55  55 100 CALM      29.96S FOG
MEDFORD        CLEAR     54  53  96 N7        29.96S FOG
WAUSAU         PTCLDY    57  54  89 N8        29.93S FOG
WIS RAPIDS     CLEAR     59  54  83 N6        29.95R HAZE
MARSHFIELD     CLEAR     57  53  86 NW9       29.95S FOG
RICE LAKE      MOCLDY    56  49  76 NW5       30.04R
$$

...NORTHEAST IOWA...


CITY           SKY/WX    TMP DP  RH WIND       PRES   REMARKS
DECORAH          N/A    N/A N/A N/A MISG        N/A
MASON CITY     PTCLDY    58  54  86 N12       30.04R
CHARLES CITY   MOCLDY    59  59 100 NW8       30.00R FOG
OELWEIN          N/A     61  59  94 N7        29.98R
$$

...ELSEWHERE IN IOWA...


CITY           SKY/WX    TMP DP  RH WIND       PRES   REMARKS
DES MOINES     CLOUDY    66  59  78 N8        30.00R HAZE
IOWA CITY      CLOUDY    68  60  75 N13       29.93R
FORT DODGE     CLEAR     59  52  77 N7        30.07R
$$

...NORTHERN ILLINOIS...


CITY           SKY/WX    TMP DP  RH WIND       PRES   REMARKS
CHICAGO-OHARE  CLOUDY    71  69  93 W7        29.83F
CHICAGO-MIDWAY LGT RAIN  73  69  87 S6        29.84F
MOLINE         RAIN      67  63  87 NW9G22    29.88R FOG
ROCKFORD       LGT RAIN  69  65  86 NW17G24   29.86R FOG
PEORIA         LGT RAIN  74  70  87 CALM      29.86F FOG
$$

NOTE: "FAIR" INDICATES FEW OR NO CLOUDS BELOW 12,000 FEET WITH NO
SIGNIFICANT WEATHER AND/OR OBSTRUCTIONS TO VISIBILITY. WIND
SPEEDS ARE IN MILES-PER-HOUR.



USA.gov is the U.S. government's official web portal to all federal, state and local government web resources and services.